Weather History for Shreveport, LA

Change the Weather History Date:

Sunday, August 18, 2013

  Actual Average Record
Temperature  
Mean Temperature 81 °F 83 °F  
Max Temperature 93 °F 94 °F 110 °F (1909)
Min Temperature 68 °F 72 °F 57 °F (1992)
Degree Days  
Heating Degree Days 0 0  
Month to date heating degree days 0 0  
Since 1 June heating degree days 0 0  
Since 1 July heating degree days 0 0  
Cooling Degree Days 16 18  
Month to date cooling degree days 366 337  
Year to date cooling degree days 1782 1738  
Since 1 June cooling degree days 1395 1340  
Growing Degree Days 30 (Base 50)    
Moisture  
Dew Point 64 °F    
Average Humidity 63    
Maximum Humidity 90    
Minimum Humidity 36    
Precipitation  
Precipitation 0.00 in 0.09 in 2.76 in (1915)
Month to date precipitation 0.18 1.63  
Year to date precipitation 26.96 32.89  
Snow  
Snow 0.00 in - - ()
Month to date snowfall 0.0  
Since 1 June snowfall 0.0  
Since 1 July snowfall 0.0  
Snow Depth 0.00 in    
Sea Level Pressure  
Sea Level Pressure 30.02 in    
Wind  
Wind Speed 5 mph (ENE)    
Max Wind Speed 15 mph    
Max Gust Speed 21 mph    
Visibility 10 miles    
Events      
T = Trace of Precipitation, MM = Missing Value Source: NWS Daily Summary

Daily Weather History Graph

Daily Weather History Graph

Search for Another Location

Airport:

Trip Planner

Search our weather history database for the weather conditions in past years. The results will help you decide how hot, cold, wet, or windy it might be!

Date:

Astronomy

Aug. 18, 2013 Rise Set
Actual Time 6:41 AM CDT 7:56 PM CDT
Civil Twilight 6:15 AM CDT 8:21 PM CDT
Nautical Twilight 5:45 AM CDT 8:52 PM CDT
Astronomical Twilight 5:13 AM CDT 9:24 PM CDT
Moon 5:59 PM CDT (8/18) 3:56 AM CDT (8/18)
Length of Visible Light 14h 06m
Length of Day
13h 14m
Waxing Gibbous, 92% of the Moon is Illuminated
Aug 18
Waxing Gibbous
Aug 20
Full
Aug 28
Last Quarter
Sep 5
New
Sep 12
First Quarter

Hourly Weather History & Observations

Time (CDT) Temp. Heat Index Dew Point Humidity Pressure Visibility Wind Dir Wind Speed Gust Speed Precip Events Conditions
12:56 AM 73.0 °F - 66.0 °F 79% 30.01 in 10.0 mi Calm Calm - N/A   Partly Cloudy
1:56 AM 73.0 °F - 66.0 °F 79% 30.01 in 10.0 mi East 3.5 mph - N/A   Partly Cloudy
2:56 AM 73.0 °F - 66.0 °F 79% 30.01 in 10.0 mi NNE 4.6 mph - N/A   Clear
3:56 AM 72.0 °F - 66.0 °F 81% 30.00 in 10.0 mi ENE 5.8 mph - N/A   Clear
4:56 AM 70.0 °F - 66.0 °F 87% 30.00 in 9.0 mi Calm Calm - N/A   Clear
5:56 AM 69.1 °F - 64.9 °F 87% 30.01 in 9.0 mi East 3.5 mph - N/A   Clear
6:56 AM 68.0 °F - 64.9 °F 90% 30.03 in 7.0 mi NE 3.5 mph - N/A   Clear
7:56 AM 72.0 °F - 66.9 °F 84% 30.04 in 7.0 mi Calm Calm - N/A   Clear
8:56 AM 77.0 °F - 66.9 °F 71% 30.06 in 9.0 mi Calm Calm - N/A   Clear
9:56 AM 80.1 °F 82.3 °F 66.9 °F 64% 30.06 in 8.0 mi Calm Calm - N/A   Clear
10:56 AM 84.9 °F 87.6 °F 66.9 °F 55% 30.06 in 10.0 mi NNE 8.1 mph - N/A   Partly Cloudy
11:56 AM 84.0 °F 85.8 °F 64.9 °F 53% 30.06 in 10.0 mi East 10.4 mph - N/A   Mostly Cloudy
12:56 PM 87.1 °F 87.8 °F 63.0 °F 44% 30.04 in 10.0 mi ENE 11.5 mph - N/A   Mostly Cloudy
1:56 PM 90.0 °F 90.6 °F 63.0 °F 40% 30.03 in 10.0 mi ENE 10.4 mph 17.3 mph N/A   Mostly Cloudy
2:56 PM 91.9 °F 92.9 °F 63.0 °F 38% 30.01 in 10.0 mi NNE 10.4 mph - N/A   Scattered Clouds
3:56 PM 91.0 °F 90.5 °F 60.1 °F 35% 30.00 in 10.0 mi ESE 9.2 mph - N/A   Scattered Clouds
4:56 PM 91.0 °F 90.5 °F 60.1 °F 35% 29.99 in 10.0 mi East 10.4 mph - N/A   Scattered Clouds
5:56 PM 91.0 °F 90.9 °F 61.0 °F 36% 29.98 in 10.0 mi ESE 3.5 mph - N/A   Partly Cloudy
6:56 PM 89.1 °F 89.0 °F 61.0 °F 39% 29.97 in 10.0 mi East 5.8 mph - N/A   Partly Cloudy
7:56 PM 84.0 °F 84.5 °F 62.1 °F 47% 29.99 in 10.0 mi East 5.8 mph - N/A   Partly Cloudy
8:56 PM 80.1 °F 81.5 °F 63.0 °F 56% 29.99 in 10.0 mi East 4.6 mph - N/A   Clear
9:56 PM 80.1 °F 81.7 °F 64.0 °F 58% 30.01 in 10.0 mi ENE 6.9 mph - N/A   Clear
10:56 PM 77.0 °F - 64.9 °F 66% 30.01 in 10.0 mi Calm Calm - N/A   Clear
11:56 PM 77.0 °F - 64.9 °F 66% 30.01 in 10.0 mi ESE 4.6 mph - N/A   Clear